AirNav   Air Wisconsin pilot careers
 
 670 users online  

43PA Kolb Airport
Spring City, Pennsylvania, USA

GOING TO SPRING CITY?


FAA INFORMATION EFFECTIVE 09 NOVEMBER 2017

Location

FAA Identifier: 43PA
Lat/Long: 40-09-35.9900N / 075-32-44.4150W
40-09.599833N / 075-32.740250W
40.1599972 / -75.5456708
(estimated)
Elevation: 290 ft. / 88 m (estimated)
Variation: 11W (1985)
From city: 2 miles S of SPRING CITY, PA
Time zone: UTC -5 (UTC -4 during Daylight Saving Time)
Zip code: 19475

Airport Operations

Airport use: Private use. Permission required prior to landing
Activation date: 01/1974
Control tower: no
ARTCC: NEW YORK CENTER
FSS: WILLIAMSPORT FLIGHT SERVICE STATION
Attendance: 1200-DARK
Wind indicator: yes
Segmented circle: no

Airport Communications

WX ASOS at PTW (5 nm N): 119.425 (610-495-0823)
WX AWOS-3 at OQN (10 nm S): 121.4 (610-692-6190)
WX AWOS-3 at LOM (13 nm E): 118.925 (215-646-1068)
WX AWOS-3 at CKZ (18 nm NE): 126.325 (215-257-7291)
WX AWOS-3 at UKT (18 nm NE): 119.475 (215-538-7610)
WX AWOS-3 at MQS (18 nm SW): 126.25 (610-384-6132)

Nearby radio navigation aids

VOR radial/distance  VOR name  Freq  Var
PTWr179/3.8POTTSTOWN VORTAC116.5009W
MXEr031/15.6MODENA VORTAC113.2009W
PNEr291/(25.0)NORTH PHILADELPHIA VOR112.0010W
ETXr175/26.0EAST TEXAS VOR/DME110.2009W
DQOr016/29.0DUPONT VORTAC114.0010W
ARDr269/29.8YARDLEY VOR/DME108.2010W
OODr350/33.4WOODSTOWN VORTAC112.8010W
FJCr197/34.3ALLENTOWN VORTAC117.5010W
LRPr095/34.3LANCASTER VOR/DME117.3009W

 
NDB name  Hdg/Dist  Freq  Var  ID
AMBLER292/12.127512WING .. -. --.

Airport Services

Airframe service: NONE
Powerplant service: NONE

Runway Information

Runway 9/27

Dimensions: 2683 x 100 ft. / 818 x 30 m
Surface: turf
RUNWAY 9  RUNWAY 27
Latitude: 40-09.644333N40-09.555333N
Longitude: 075-33.022333W075-32.458167W
Elevation: 287.0 ft.219.0 ft.
Traffic pattern: leftleft

Airport Ownership and Management from official FAA records

Ownership: Privately-owned
Owner: MARCUS KOLB-JOHN F. STEIMER
580 WALL ST
PHOENIXVILLE, PA 19460
Phone (610) 792-0736
Manager: MARCUS KOLB
580 WALL ST
PHOENIXVILLE, PA 19460
Phone (610) 792-0736

Airport Operational Statistics

Aircraft based on the field: 11
Single engine airplanes: 5
Helicopters: 3
Ultralights: 3
    

Instrument Procedures

There are no published instrument procedures at 43PA.

Some nearby airports with instrument procedures:

KPTW - Heritage Field Airport (5 nm N)
N10 - Perkiomen Valley Airport (6 nm NE)
N47 - Pottstown Municipal Airport (8 nm NW)
KOQN - Brandywine Airport (10 nm S)
KLOM - Wings Field Airport (13 nm E)
KCKZ - Pennridge Airport (18 nm NE)
KUKT - Quakertown Airport (18 nm NE)
KMQS - Chester County G O Carlson Airport (18 nm SW)
 
Loc | Ops | Rwys | IFR | FBO | Links
Com | Nav | Svcs | Stats | Notes


 
Area around 43PA (Kolb Airport)
 
Road maps at: MapQuest Bing Google
 
Aerial photo
No photo
 
Sectional chart

 
Airport distance calculator
Flying to Kolb Airport? Find the distance to fly.

From to 43PA

Sunrise and sunset
Times for 21-Nov-2017
 Local
(UTC-5)
 Zulu
(UTC)
Morning civil twilight06:2611:26
Sunrise06:5611:56
Sunset16:4121:41
Evening civil twilight17:1022:10

Current date and time
Zulu (UTC)  21-Nov-2017 12:46:51
Local (UTC-5)  21-Nov-2017 07:46:51
 
METAR
KPTW 
4nm N 
211154Z AUTO 16004KT 9SM CLR 02/M01 A3013 RMK AO2 SLP203 T00221006 10033 21017 52005
KLOM 
13nm E 
211235Z AUTO 00000KT 10SM CLR 00/M01 A3015 RMK AO1
KCKZ 
18nm NE 
211235Z AUTO 21003KT 10SM CLR 02/00 A3012 RMK AO2
KUKT 
18nm NE 
211235Z AUTO 00000KT 10SM CLR M01/M03 A3011 RMK AO1
KMQS 
18nm SW 
211235Z AUTO VRB03KT 10SM CLR 02/00 A3012 RMK AO2
TAF
KPHL 
23nm SE 
211140Z 2112/2218 20006KT P6SM SCT250 FM211500 22011G21KT P6SM SCT250 FM212300 20009KT P6SM OVC120 PROB30 2205/2208 6SM -SHRA OVC050 FM220800 23005KT P6SM OVC035 PROB30 2208/2211 6SM -SHRA FM221100 27010KT P6SM BKN035 FM221500 32012G22KT P6SM SCT035
NOTAMs
Click for the latest NOTAMs
NOTAMs are issued by the DoD/FAA and will open in a separate window not controlled by AirNav.

 

 
 

Would you like to see your business listed on this page?

 If your business provides an interesting product or service to pilots, flight crews, aircraft, or users of the Kolb Airport, you should consider listing it here.  To start the listing process, click on the button below
 
Add a business
 

Other Pages about Kolb Airport

Update a link
 
Copyright © AirNav, LLC. All rights reserved. Privacy Policy  Contact